Terminal Aerodrome Forecast
Issued by NWS Melbourne, FL

Home | Current Version | Previous Version | Text Only | Print | Product List | Glossary On
Versions: 1 2 3 4 5 6 7 8 9 10 11 12 13 14 15 16 17 18 19 20 21 22 23 24 25 26 27 28 29 30 31
000
FTUS42 KMLB 060520
TAFMCO
TAF
KMCO 060520Z 0606/0706 32007KT P6SM FEW070
     FM061400 31012KT P6SM FEW040
     FM061700 30013G20KT P6SM FEW050
     FM062300 28011KT P6SM SKC
     FM070200 28006KT P6SM SKC=

USA.gov is the U.S. government's official web portal to all federal, state and local government web resources and services.